Location: Beaucens
(42.9667°N, 0.0500°W)
Time: 23:42:23
(UTC+00:00)

Daily predictions for brighter satellites

Satellite Brightness Start Highest point End
(mag) Time Altitude Azimuth Time Altitude Azimuth Time Altitude Azimuth
Cosmos 494 Rocket 4.1 19:58:10 10° NNW 20:03:24 65° ENE 20:08:35 10° SSE
Feng Yun 1-1 Rocket 4.5 20:02:25 10° S 20:07:52 73° WSW 20:13:16 10° NNW
NOSS 3-1 (C) 4.4 20:08:08 10° SE 20:11:01 16° ESE 20:14:07 10° ENE
Cosmos 1844 4.3 20:06:59 10° SW 20:12:44 67° WNW 20:18:31 10° NNE
Timation 2 Rocket 4.0 20:06:47 10° S 20:13:01 62° ESE 20:19:03 10° NNE
Cosmos 1025 Rocket 2.9 20:11:36 10° S 20:15:49 71° E 20:20:03 10° NNE
ATLAS CENTAUR R/B 1.5 20:13:11 10° NNW 20:17:10 62° NE 20:21:18 10° SE
CARTOSAT-1 4.4 20:13:02 10° S 20:17:11 51° W 20:21:21 10° NNW
Cosmos 1125 Rocket 3.8 20:16:59 10° S 20:22:00 46° ESE 20:27:04 10° NNE
NOSS 2-3 (E) 3.3 20:18:39 10° SW 20:22:17 78° NW 20:26:13 10° NE
Okean 1 Rocket 3.5 20:19:05 10° NNW 20:23:32 67° W 20:27:57 10° S
Lacrosse 5 3.8 20:19:18 10° W 20:23:54 34° NNW 20:28:30 10° NE
Cosmos 1833 Rocket 3.9 20:19:03 10° N 20:23:59 30° NE 20:28:52 10° ESE
CZ-4B R/B 4.2 20:20:02 10° S 20:25:19 47° W 20:30:44 10° NNW
Cosmos 1455 Rocket 3.3 20:21:18 10° N 20:25:36 52° ENE 20:29:50 10° SSE
Orbus 7S? 3.0 20:23:16 10° NW 20:26:01 49° NE 20:28:28 12° ESE
Nadezhda 3 Rocket 4.1 20:21:16 10° N 20:27:20 59° E 20:33:23 10° SSE
Cosmos 1975 Rocket 3.4 20:23:18 10° SSE 20:27:33 46° E 20:31:49 10° NNE
PSLV R/B 4.1 20:25:36 10° S 20:29:05 58° W 20:32:39 10° NNW
GP-B 3.1 20:25:41 10° N 20:30:07 87° W 20:34:31 10° S
MetOp-B 4.2 20:29:18 10° SSE 20:34:36 69° ENE 20:39:56 10° N
NOSS 2-2 (D) 3.9 20:32:28 10° SW 20:35:41 46° NW 20:38:43 10° NNE
Cosmos 1844 Rocket 4.4 20:34:11 10° WSW 20:39:18 36° WNW 20:44:26 10° N
NOSS 2-3 (C) 4.2 20:38:13 10° SW 20:41:43 49° NW 20:45:34 10° NNE
Cosmos 2082 Rocket 4.3 20:40:18 10° NNE 20:43:16 14° NE 20:46:13 10° ENE
Meteor 1-21 Rocket 4.4 20:37:48 10° SSW 20:43:20 76° W 20:48:54 10° N
BREEZE-M R/B 3.1 20:42:14 10° SW 20:45:48 49° SE 20:51:52 10° ENE
Cosmos 2278 Rocket 3.3 20:44:51 14° SSE 20:48:23 24° ESE 20:52:51 10° NE
SPOT 3 Rocket 4.3 20:44:38 15° SE 20:48:29 37° ENE 20:53:15 10° N
Cosmos 921 Rocket 3.4 20:44:46 10° NNW 20:48:54 59° WSW 20:53:02 10° S
Meteor 2-1 Rocket 4.2 20:48:52 10° N 20:54:28 71° ENE 20:59:05 15° SSE
Cosmos 2228 4.1 20:50:53 10° NNE 20:54:32 28° ENE 20:56:37 19° ESE
Cosmos 1869 3.4 20:53:27 10° N 20:57:12 52° E 20:59:33 21° SSE
SPOT 5 3.2 20:52:24 10° S 20:57:18 72° WSW 21:02:30 10° NNW
USA 276 1.9 20:54:49 10° WNW 20:57:45 77° SSW 20:59:13 27° SE
MOS 1 Rocket 3.3 20:55:18 17° SSE 20:58:45 61° ENE 21:03:06 10° N
Resurs 01 Rocket 4.1 20:55:53 10° SW 20:58:57 19° W 21:02:03 10° NW
ERS-1 Rocket 2.9 20:54:54 15° SSE 20:59:03 75° ENE 21:04:03 10° N
Okean O Rocket 3.6 20:56:42 10° SSW 21:00:17 25° W 21:03:54 10° NW
BREEZE-M DEB (TANK) 3.7 20:59:58 10° WNW 21:02:57 67° NNE 21:10:19 12° ESE
ISS -1.1 21:02:21 10° NW 21:04:45 18° N 21:07:09 10° NE
Cosmos 1339 Rocket 4.4 21:02:14 10° N 21:08:28 78° E 21:13:21 17° SSE
Spot 2 Rocket 3.6 21:05:05 19° SSE 21:08:42 67° ENE 21:13:46 10° N
Cosmos 1943 Rocket 3.3 21:09:13 20° SE 21:10:50 23° ESE 21:15:09 10° NE
Cosmos 614 Rocket 4.5 21:07:44 10° N 21:12:35 44° ENE 21:15:20 23° SE
Meteor 1-11 4.4 21:10:13 10° SSW 21:15:56 75° W 21:21:38 10° N
Cosmos 2341 Rocket 4.0 21:12:17 14° S 21:17:42 66° E 21:24:00 10° NNE
Terra 1.8 21:15:28 20° S 21:18:45 83° WSW 21:23:31 10° NNW
CZ-4C R/B 4.4 21:17:35 10° N 21:20:59 39° WNW 21:24:15 10° SW
Cosmos 2098 4.4 21:22:31 34° SSE 21:23:43 57° E 21:26:45 10° NNE
Cosmos 44 3.9 21:19:56 10° SW 21:25:10 63° NW 21:30:13 10° NNE
ATLAS 3B R/B 3.4 21:27:17 22° SSE 21:31:04 36° ESE 21:37:44 10° NE
Ariane Rocket 3.0 21:33:17 25° S 21:36:19 77° WSW 21:41:24 10° NNW
Cosmos 1606 3.6 21:33:14 10° NNW 21:36:36 40° W 21:38:26 22° SSW
Cosmos 2298 Rocket 4.2 21:31:55 10° SSW 21:37:13 72° WNW 21:42:34 10° NNE
CZ-4C R/B 4.4 21:33:06 10° NNW 21:38:51 27° NE 21:45:35 10° E
Cosmos 220 Rocket 4.5 21:35:06 10° NNW 21:39:08 50° WSW 21:41:04 27° SSW
USA 215 3.5 21:36:57 25° SSE 21:40:46 58° SW 21:47:14 10° NW
Landsat 5 3.7 21:36:37 10° NNE 21:40:55 53° E 21:42:12 38° SSE
Cosmos 1821 Rocket 4.4 21:38:58 28° SSE 21:41:55 48° E 21:47:58 10° NNE
Cosmos 1544 Rocket 3.9 21:39:10 10° NNW 21:43:26 61° W 21:45:34 28° SSW
Cosmos 1437 Rocket 3.1 21:44:58 24° SSW 21:46:57 55° WNW 21:50:31 10° N
ATLAS CENTAUR R/B 3.8 21:52:15 10° W 21:54:19 14° WSW 21:56:13 11° SW
Geosat 3.9 21:51:33 10° NNE 21:56:36 88° WNW 22:00:32 17° SSW
ULPM Upper Stage 4.1 21:53:49 10° NNW 21:57:44 31° NE 21:59:29 23° E
Meteor 2-13 Rocket 4.5 21:53:17 10° N 21:59:27 67° E 22:02:01 36° SSE
NOSS 3-1 (C) 3.4 21:56:03 10° SW 22:00:49 65° NW 22:06:33 10° NNE
Cosmos 1269 Rocket 4.3 21:56:10 10° NNW 22:01:23 56° ENE 22:03:08 38° ESE
BREEZE-M DEB (TANK) 2.6 22:01:50 10° NW 22:03:35 36° NNW 22:03:35 36° NNW
Cosmos 2366 rocket 4.2 22:00:34 18° SSW 22:05:14 66° W 22:11:22 10° N
Cosmos 1833 Rocket 3.4 22:02:42 10° NW 22:08:03 44° WSW 22:10:33 28° SSW
Cosmos 2058 4.2 22:10:23 27° ENE 22:10:23 27° ENE 22:13:26 10° NNE
Milstar 3 4.4 22:07:23 10° SSW 22:17:16 27° SE 22:26:11 10° E
Cosmos 1606 Rocket 3.4 22:11:59 10° N 22:16:20 79° E 22:16:53 65° SSE
Cosmos 1726 Rocket 3.6 22:12:57 10° N 22:17:13 58° E 22:17:37 56° ESE
Cosmos 2239 Rocket 4.4 22:23:14 42° SSE 22:25:21 70° E 22:31:34 10° NNE
Cosmos 2082 Rocket 2.1 22:22:41 10° NNW 22:28:20 77° ENE 22:29:49 50° SE
Cosmos 1140 Rocket 4.0 22:25:58 10° N 22:30:54 45° ENE 22:32:00 39° E
Cosmos 2278 Rocket 3.0 22:26:36 10° SW 22:32:06 50° WNW 22:37:37 10° NNE
Cosmos 2369 Rocket 3.7 22:33:17 20° E 22:33:17 20° E 22:36:32 10° NE
Cosmos 2084 Rocket 3.2 22:28:46 10° NW 22:32:32 81° WNW 22:32:32 81° WNW
USA 290 3.8 22:35:24 29° WNW 22:35:45 30° WNW 22:38:36 10° N
SL-08 R/B 4.3 22:35:16 45° S 22:37:20 85° E 22:43:28 10° N
Cosmos 2123 Rocket 4.3 22:31:29 10° N 22:37:40 55° ENE 22:39:23 42° SE
Cosmos 1000 Rocket 4.4 22:33:04 10° N 22:39:14 83° E 22:41:00 50° SSE
NOSS 3-1 (A) 3.2 22:37:22 25° SW 22:40:15 71° NW 22:46:02 10° NNE
Cosmos 1812 3.0 22:37:37 10° N 22:40:34 59° N 22:40:34 59° N
ISS -2.4 22:39:02 10° NW 22:41:58 36° NNE 22:41:58 36° NNE
PSLV R/B 4.2 22:39:05 10° NNE 22:42:29 54° ENE 22:42:29 54° ENE
USA 307 4.5 22:41:17 10° NW 22:44:29 25° NNE 22:45:39 21° NE
Cosmos 1782 4.3 22:44:10 10° NNE 22:46:49 25° ENE 22:46:49 25° ENE
Cosmos 2251 Rocket 4.4 22:42:32 10° N 22:47:31 37° ENE 22:48:44 33° E
Cosmos 489 Rocket 4.4 22:46:58 52° SSE 22:48:25 69° ESE 22:54:37 10° NNE
Alouette 2 Rocket 3.6 22:49:20 71° ESE 22:49:25 71° E 22:54:56 10° NNE
Cosmos 2058 Rocket 3.0 22:47:00 10° N 22:51:14 71° ENE 22:51:14 71° ENE
Cosmos 1943 Rocket 2.8 22:50:39 22° SW 22:54:10 53° WNW 22:59:41 10° NNE
Cosmos 1271 Rocket 4.1 22:58:20 30° NE 22:58:20 30° NE 23:00:40 10° NNE
Cosmos 192 4.5 23:00:07 56° SW 23:01:02 70° WNW 23:06:00 10° NNE
Spot 4 3.9 23:01:14 63° E 23:01:35 66° ENE 23:06:24 10° N
ARIANE 5 R/B 2.9 23:04:43 58° WSW 23:04:45 58° W 23:09:11 10° NNW
Meteor 2-19 Rocket 4.5 22:58:36 10° N 23:04:46 69° E 23:06:01 55° SE
Cosmos 1934 Rocket 3.9 23:03:26 54° S 23:05:01 88° E 23:11:16 10° N
USA 305 4.1 23:03:39 10° NW 23:05:57 30° N 23:05:57 30° N
COSMOS 2406 3.2 23:01:30 10° NNW 23:07:09 68° WSW 23:07:56 60° SSW
USA 229 DEB 3.4 23:07:39 57° SSE 23:08:26 62° ESE 23:14:56 10° NE
USA 229 3.4 23:07:49 57° SSE 23:08:33 61° ESE 23:15:03 10° NE
Lacrosse 4 Rocket 3.5 23:15:04 17° ENE 23:15:04 17° ENE 23:16:23 10° NE
USA 281 4.1 23:11:31 26° ESE 23:14:34 40° NE 23:20:36 10° N
H-2A R/B 2.8 23:18:20 57° N 23:18:20 57° N 23:21:25 10° NNW
Lacrosse 5 rocket 3.4 23:23:16 17° ENE 23:23:16 17° ENE 23:24:20 10° NE
ATLAS 3B R/B 3.5 23:14:31 10° SW 23:21:31 55° NW 23:29:02 10° NNE
ALOS 2 2.7 23:22:03 70° NE 23:22:03 70° NE 23:26:10 10° N
CZ-4C R/B 3.0 23:20:54 10° NW 23:28:15 84° NE 23:31:35 42° SE
Cosmos 1758 Rocket 3.9 23:31:55 58° NE 23:31:55 58° NE 23:35:30 10° NNE
Cosmos 2285 Rocket 4.3 23:25:02 10° NNW 23:31:23 59° ENE 23:33:03 45° ESE
BREEZE-M DEB (TANK) 4.2 23:11:20 10° SW 23:31:41 65° SSE 23:36:26 10° ENE
Cosmos-2242 3.3 23:27:44 10° N 23:31:18 63° N 23:31:18 63° N
SeaSat 1 2.4 23:33:22 73° E 23:33:38 76° ENE 23:38:33 10° NNW
Cosmos 1238 Rocket 3.7 23:30:19 10° NNW 23:33:08 44° NW 23:33:08 44° NW
Cosmos 1626 Rocket 3.8 23:34:36 64° NW 23:34:36 64° NW 23:38:27 10° N
Okean 1-7 Rocket 4.0 23:35:24 56° NE 23:35:24 56° NE 23:39:06 10° NNE
Gblst 52 Del rocket 4.0 23:34:16 64° SW 23:35:11 89° SSE 23:40:42 10° ENE
ULPM Upper Stage 4.2 23:33:11 10° NW 23:35:49 28° W 23:35:49 28° W
Exosat Rocket 4.0 23:33:18 10° NNW 23:38:28 48° ENE 23:39:13 45° E
SL-19 R/B 4.5 23:32:40 10° NNE 23:39:19 81° ESE 23:40:28 62° S
Meteor 2-3 Rocket 3.6 23:38:47 72° S 23:39:26 90° W 23:45:08 10° N
Gbstr 26 Del rocket 3.9 23:34:37 10° NW 23:39:48 66° NNE 23:42:40 32° ESE
Meteor 2-2 Rocket 4.1 23:35:45 10° N 23:41:34 86° WSW 23:42:15 71° S
BREEZE-M DEB (TANK) 4.3 23:43:11 10° WNW 23:46:43 81° NNE 23:58:22 10° ESE
Cosmos 1605 Rocket 3.9 23:47:24 59° SW 23:48:32 73° W 23:54:41 10° N
Cosmos 2297 3.7 23:47:55 61° SW 23:48:51 76° WNW 23:54:36 10° NNE
Cosmos 1666 4.3 23:51:09 28° NNE 23:51:09 28° NNE 23:52:54 10° NNE
Spot 2 4.4 23:51:34 61° NW 23:51:34 61° NW 23:55:19 10° NNW
Cosmos 1656 Rocket 3.8 23:50:27 57° WSW 23:51:18 67° WNW 23:56:51 10° NNE
Lacrosse 5 4.4 23:49:08 10° NNW 23:52:54 20° NNE 23:56:39 10° ENE
COSMOS 2455 3.8 23:47:20 10° NNW 23:53:05 43° NE 23:55:40 28° ESE
Cosmos 407 Rocket 3.9 23:49:20 10° NNW 23:54:10 50° W 23:54:10 50° W
